[[{"header":{"parameterUnit":"m.s-1","parameterCategory":1,"la1":30.2991,"la2":30.254,"lo1":-89.0895,"lo2":-89.0444,"dy":0.0017,"dx":0.0017,"nx":28,"ny":28,"refTime":"2025-05-23T21:00:00:Z","depth":0,"parameterNumber":2,"parameterNumberName":"U-component_of_WINDS"},"data":[0,0,0,0,0,0,0,0,0,0,0,0,0,0,0,0,0,0,0,0,0,0,0,0,0,0,0,0,0,0,0,0,0,0,0,0,0,0,0,0,0,0,0,0,0,0,0,0,0,0,0,0,0,0,0,0,0,0,0.6108,0.6108,0,0.6107,0.6107,0.6107,0.6096,0.6095,0.6095,0.6095,0.6094,0.6094,0.6095,0,0,0,0,0,0,0,0,0,0,0,0,0,0.6101,0.6101,0.6108,0.6108,0.6108,0.6107,0.6107,0.6107,0.6096,0.6095,0.6095,0.6095,0.6094,0.6094,0.6095,0,0,0,0,0,0,0,0,0,0,0,0,0,0.6102,0.6101,0.6108,0.6102,0.6102,0.6107,0.6107,0.6107,0.6096,0.6095,0.6095,0.6095,0.6094,0.6094,0.6095,0.6106,0,0,0.6096,0.6096,0,0,0,0,0,0,0,0,0.6102,0.6102,0.6103,0.6103,0.6102,0.6101,0.6104,0.6107,0.6096,0.6098,0.6095,0.6094,0.6097,0.6097,0.6098,0.6106,0.6105,0.6096,0.6096,0.6096,0.6096,0,0,0,0,0,0,0,0.6102,0.6102,0.6108,0.6103,0.6103,0.61,0.61,0.6105,0.61,0.6098,0.6097,0.6097,0.6096,0.6097,0.6098,0.6105,0.6096,0.6096,0.6096,0.6097,0.6123,0.6123,0,0,0,0,0,0,0.6103,0.6102,0.6108,0.6108,0.6101,0.61,0.61,0.6102,0.61,0.6099,0.6097,0.6097,0.6097,0.6097,0.6098,0.611,0.6096,0.6097,0.6097,0.6122,0.6123,0.6123,0,0,0,0,0,0,0.6103,0.6103,0.6108,0.6105,0.6105,0.6101,0.6103,0.6102,0.6103,0.6099,0.6099,0.6099,0.6097,0.6097,0.6104,0.611,0.6097,0.6097,0.6122,0.6122,0.6123,0.6136,0,0,0,0,0,0,0.6102,0.6103,0.6107,0.6105,0.6105,0.6114,0.6103,0.6102,0.6104,0.6102,0.6101,0.61,0.6096,0.6103,0.6104,0.611,0.6097,0.6121,0.6122,0.6123,0.6135,0.6137,0.6138,0,0,0,0,0,0.6102,0.6111,0.6107,0.6108,0.611,0.6114,0.6114,0.611,0.6104,0.6108,0.6106,0.61,0.6109,0.6104,0.6105,0.6111,0.6121,0.6122,0.6123,0.6134,0.6136,0.6138,0,0,0,0,0,0,0.6113,0.611,0.6107,0.6115,0.6115,0.6112,0.6117,0.6112,0.6114,0.6113,0.6107,0.6107,0.6114,0.6114,0.6108,0.6122,0.6114,0.6115,0.6122,0.6124,0.6126,0.6126,0.6098,0,0,0,0,0,0.6117,0.612,0.6117,0.6125,0.6125,0.6121,0.6123,0.6119,0.6119,0.6119,0.6117,0.6118,0.612,0.6122,0.6125,0.6135,0.6134,0.614,0.6141,0.6143,0.6144,0.6149,0.6152,0.6127,0.6127,0.6127,0,0,0.6124,0.6123,0.6125,0.6127,0.6127,0.6131,0.6121,0.6125,0.6128,0.612,0.6126,0.6125,0.6125,0.6133,0.6137,0.6132,0.6151,0.6144,0.6146,0.6146,0.6151,0.6153,0.6155,0.6127,0.6127,0.6127,0,0,0.6139,0.6138,0.6144,0.6144,0.6144,0.6142,0.6143,0.6141,0.614,0.6147,0.614,0.6144,0.6149,0.6149,0.615,0.6166,0.6161,0.6167,0.6177,0.6182,0.6184,0.6186,0.6191,0.6193,0.6168,0.6168,0.6168,0,0.6148,0.6153,0.6148,0.6153,0.6154,0.6147,0.6153,0.6153,0.6154,0.6155,0.6151,0.6157,0.6157,0.6165,0.6169,0.617,0.6172,0.6167,0.6184,0.6186,0.6187,0.6192,0.6195,0.6169,0.6169,0.6169,0.6169,0,0.6164,0.6168,0.6173,0.6174,0.6176,0.6181,0.6177,0.618,0.6176,0.6174,0.6181,0.618,0.6183,0.6184,0.6181,0.6193,0.619,0.6185,0.6177,0.619,0.6195,0.6197,0.617,0.617,0.6169,0.6169,0,0,0.6185,0.6184,0.6186,0.6186,0.6186,0.6189,0.6194,0.6196,0.6199,0.62,0.6204,0.6209,0.6204,0.6205,0.6202,0.6207,0.622,0.6201,0.6201,0.6204,0.6232,0.6236,0.6238,0.6217,0.6217,0.6217,0.6232,0,0.6199,0.6208,0.6204,0.6214,0.6218,0.6211,0.6216,0.6216,0.6215,0.6218,0.6217,0.622,0.6214,0.6214,0.6219,0.6217,0.6225,0.6216,0.6221,0.6221,0.622,0.6241,0.6245,0.6259,0.6234,0.6235,0.6235,0,0.6217,0.6218,0.6228,0.6228,0.6229,0.6234,0.6236,0.6239,0.6239,0.6238,0.6239,0.6235,0.6241,0.6233,0.6241,0.6235,0.6237,0.6237,0.6237,0.6237,0.6228,0.6241,0.6263,0.6265,0.6238,0.6238,0.6237,0,0.6231,0.6236,0.6242,0.6243,0.6243,0.6246,0.6246,0.6246,0.6248,0.625,0.6251,0.6254,0.6255,0.6257,0.6254,0.6249,0.6263,0.6255,0.6262,0.6262,0.6265,0.6264,0.6287,0.6266,0.6266,0.6266,0.6266,0,0.6247,0.6253,0.6249,0.6253,0.626,0.6256,0.6263,0.6262,0.6263,0.6267,0.6261,0.6265,0.6261,0.6265,0.6263,0.627,0.627,0.6269,0.6269,0.627,0.627,0.627,0.6269,0.6267,0.6267,0.6267,0.6267,0,0.6263,0.6261,0.6268,0.6267,0.6267,0.6272,0.6271,0.6275,0.6274,0.6279,0.628,0.6278,0.6282,0.6279,0.6283,0.6282,0.6291,0.6289,0.629,0.629,0.6297,0.6296,0.6321,0.6324,0.6301,0.6302,0.6302,0,0.6273,0.6278,0.6278,0.628,0.6281,0.6284,0.6286,0.6283,0.6285,0.6287,0.629,0.6294,0.6297,0.6304,0.6302,0.6306,0.6304,0.6312,0.6304,0.6305,0.6304,0.6303,0.6304,0.6313,0.6314,0.6314,0.6314,0,0.6291,0.629,0.6293,0.6296,0.6298,0.63,0.6302,0.6304,0.6301,0.6304,0.6308,0.631,0.6314,0.6318,0.6321,0.6321,0.6317,0.6317,0.6318,0.6319,0.632,0.6319,0.6294,0.6316,0.6316,0.6316,0.6316,0.6315,0.6305,0.6309,0.631,0.6313,0.6314,0.6316,0.632,0.6319,0.6322,0.6325,0.6323,0.6328,0.6329,0.6333,0.6334,0.6338,0.6334,0.6337,0.6338,0.6338,0.6339,0.632,0.6338,0.6338,0.6338,0.6338,0.6338,0,0.6322,0.6323,0.6326,0.6329,0.6332,0.6328,0.633,0.6333,0.6337,0.6338,0.6341,0.6346,0.635,0.635,0.6353,0.6357,0.6355,0.6358,0.6357,0.6357,0.6342,0.634,0.6359,0.6359,0.6359,0.6359,0.6359,0.6359,0.6332,0.6339,0.6338,0.6345,0.6345,0.635,0.6351,0.6353,0.6354,0.636,0.6363,0.6363,0.6364,0.6367,0.6371,0.6371,0.6372,0.6376,0.6375,0.636,0.6358,0.6356,0.6354,0.6376,0.6376,0.6389,0.639,0.639]},{"header":{"parameterUnit":"m.s-1","parameterCategory":1,"la1":30.2991,"la2":30.254,"lo1":-89.0895,"lo2":-89.0444,"dy":0.0017,"dx":0.0017,"nx":28,"ny":28,"refTime":"2025-05-23T21:00:00:Z","depth":0,"parameterNumber":3,"parameterNumberName":"V-component_of_WINDS"},"data":[0,0,0,0,0,0,0,0,0,0,0,0,0,0,0,0,0,0,0,0,0,0,0,0,0,0,0,0,0,0,0,0,0,0,0,0,0,0,0,0,0,0,0,0,0,0,0,0,0,0,0,0,0,0,0,0,0,0,2.0715,2.0715,0,2.0716,2.0716,2.0716,2.0713,2.0713,2.0713,2.0713,2.0714,2.0714,2.0714,0,0,0,0,0,0,0,0,0,0,0,0,0,2.0708,2.0708,2.0715,2.0715,2.0715,2.0716,2.0716,2.0716,2.0713,2.0713,2.0713,2.0712,2.0714,2.0714,2.0714,0,0,0,0,0,0,0,0,0,0,0,0,0,2.0711,2.0708,2.0715,2.0713,2.0713,2.0716,2.0716,2.0716,2.0713,2.0713,2.0713,2.0712,2.0713,2.0714,2.0714,2.0718,0,0,2.0714,2.0715,0,0,0,0,0,0,0,0,2.071,2.0711,2.0713,2.0713,2.0713,2.0714,2.0714,2.0717,2.0713,2.0713,2.0713,2.0712,2.0714,2.0714,2.0715,2.0718,2.0718,2.0714,2.0715,2.0715,2.0715,0,0,0,0,0,0,0,2.071,2.0711,2.0715,2.0713,2.0713,2.0712,2.0712,2.0715,2.0714,2.0713,2.0713,2.0713,2.0714,2.0714,2.0715,2.0718,2.0714,2.0715,2.0715,2.0715,2.0726,2.0726,0,0,0,0,0,0,2.071,2.0711,2.0715,2.0715,2.0711,2.0713,2.0713,2.0714,2.0714,2.0714,2.0713,2.0713,2.0714,2.0714,2.0715,2.072,2.0715,2.0715,2.0715,2.0726,2.0726,2.0726,0,0,0,0,0,0,2.071,2.0711,2.0715,2.0713,2.0713,2.0713,2.0714,2.0714,2.0715,2.0714,2.0714,2.0714,2.0714,2.0714,2.0718,2.072,2.0715,2.0715,2.0726,2.0726,2.0726,2.0731,0,0,0,0,0,0,2.071,2.0711,2.0713,2.0713,2.0714,2.0718,2.0714,2.0714,2.0715,2.0715,2.0715,2.0715,2.0714,2.0717,2.0718,2.072,2.0715,2.0726,2.0726,2.0726,2.0731,2.0731,2.0732,0,0,0,0,0,2.071,2.0714,2.0713,2.0713,2.0716,2.0718,2.0719,2.0717,2.0715,2.0717,2.0717,2.0715,2.072,2.0718,2.0718,2.0721,2.0725,2.0726,2.0726,2.073,2.0731,2.0732,0,0,0,0,0,0,2.0713,2.0714,2.0713,2.0717,2.0717,2.0718,2.072,2.0718,2.072,2.0719,2.0718,2.0718,2.0721,2.0721,2.0719,2.0725,2.0722,2.0723,2.0725,2.0726,2.0727,2.0727,2.0715,0,0,0,0,0,2.0714,2.0716,2.0717,2.072,2.0721,2.072,2.0721,2.072,2.0721,2.0721,2.0721,2.0722,2.0724,2.0725,2.0726,2.0731,2.0731,2.0733,2.0733,2.0734,2.0735,2.0737,2.0738,2.0728,2.0728,2.0728,0,0,2.0717,2.0717,2.0719,2.0721,2.0721,2.0724,2.0721,2.0723,2.0725,2.0722,2.0725,2.0725,2.0726,2.0729,2.0731,2.0729,2.0737,2.0735,2.0735,2.0735,2.0738,2.0739,2.0739,2.0728,2.0728,2.0728,0,0,2.0722,2.0723,2.0726,2.0727,2.0728,2.0728,2.0728,2.0729,2.0729,2.0732,2.073,2.0732,2.0735,2.0736,2.0736,2.0743,2.0741,2.0743,2.0747,2.075,2.075,2.0751,2.0754,2.0755,2.0744,2.0744,2.0744,0,2.0725,2.0729,2.0728,2.0731,2.0732,2.073,2.0733,2.0733,2.0735,2.0736,2.0734,2.0738,2.0738,2.0742,2.0744,2.0744,2.0745,2.0743,2.075,2.0751,2.0752,2.0754,2.0755,2.0744,2.0744,2.0744,2.0744,0,2.0732,2.0735,2.0737,2.0739,2.074,2.0743,2.0743,2.0744,2.0743,2.0743,2.0747,2.0747,2.0749,2.075,2.0749,2.0754,2.0753,2.0751,2.0748,2.0753,2.0755,2.0756,2.0744,2.0744,2.0744,2.0744,0,0,2.0739,2.0741,2.0742,2.0743,2.0745,2.0746,2.0749,2.0751,2.0753,2.0754,2.0756,2.0759,2.0757,2.0758,2.0757,2.0759,2.0765,2.0757,2.0757,2.0759,2.0771,2.0772,2.0773,2.0764,2.0764,2.0764,2.0771,0,2.0745,2.0751,2.075,2.0755,2.0758,2.0756,2.0759,2.076,2.076,2.0762,2.0761,2.0764,2.0761,2.0762,2.0764,2.0764,2.0767,2.0763,2.0766,2.0766,2.0766,2.0774,2.0776,2.0782,2.0771,2.0772,2.0772,0,2.0753,2.0755,2.076,2.0761,2.0762,2.0765,2.0767,2.0769,2.077,2.077,2.0771,2.077,2.0773,2.077,2.0774,2.0771,2.0772,2.0772,2.0772,2.0773,2.0769,2.0775,2.0784,2.0785,2.0773,2.0773,2.0773,0,2.0758,2.0762,2.0766,2.0766,2.0768,2.077,2.0771,2.0772,2.0773,2.0775,2.0776,2.0777,2.0778,2.078,2.0779,2.0777,2.0783,2.078,2.0784,2.0784,2.0785,2.0785,2.0795,2.0785,2.0785,2.0785,2.0785,0,2.0764,2.0768,2.0768,2.077,2.0774,2.0774,2.0777,2.0778,2.0779,2.0781,2.078,2.0782,2.0781,2.0783,2.0783,2.0786,2.0787,2.0787,2.0786,2.0787,2.0787,2.0788,2.0787,2.0786,2.0786,2.0786,2.0786,0,2.0771,2.0771,2.0775,2.0777,2.0777,2.078,2.0781,2.0783,2.0783,2.0786,2.0787,2.0787,2.079,2.0789,2.0792,2.0791,2.0796,2.0795,2.0796,2.0796,2.0799,2.0799,2.081,2.0811,2.0801,2.0801,2.0801,0,2.0775,2.0778,2.078,2.0781,2.0782,2.0785,2.0786,2.0786,2.0788,2.079,2.0792,2.0794,2.0796,2.08,2.08,2.0802,2.0802,2.0805,2.0802,2.0802,2.0802,2.0802,2.0802,2.0806,2.0806,2.0806,2.0806,0,2.0782,2.0783,2.0785,2.0788,2.079,2.0792,2.0794,2.0795,2.0795,2.0797,2.0799,2.0801,2.0804,2.0807,2.0809,2.0809,2.0808,2.0807,2.0808,2.0809,2.0809,2.0809,2.0798,2.0807,2.0807,2.0807,2.0807,2.0807,2.0788,2.0791,2.0792,2.0795,2.0797,2.0799,2.0801,2.0802,2.0804,2.0807,2.0806,2.0809,2.0811,2.0814,2.0814,2.0817,2.0815,2.0817,2.0817,2.0817,2.0818,2.0809,2.0817,2.0817,2.0817,2.0817,2.0817,0,2.0796,2.0797,2.08,2.0803,2.0805,2.0804,2.0806,2.0808,2.0811,2.0812,2.0815,2.0818,2.082,2.0821,2.0823,2.0825,2.0825,2.0826,2.0826,2.0826,2.0819,2.0818,2.0826,2.0826,2.0826,2.0826,2.0826,2.0826,2.08,2.0804,2.0805,2.081,2.0811,2.0815,2.0816,2.0818,2.0819,2.0823,2.0825,2.0826,2.0827,2.0829,2.0832,2.0832,2.0833,2.0834,2.0834,2.0827,2.0827,2.0826,2.0825,2.0835,2.0835,2.0841,2.0841,2.0841]}]]